Location: Buckeye Ditch
(40.9104°N, 122.9517°W)
Time: 13:05:43
(UTC+00:00)

Transit 4A - Visible Passes

Search period start: 18 May 2025 00:00
Search period end: 28 May 2025 00:00
Orbit: 865 x 977 km, 66.8° (Epoch: 17 May)

Date Brightness Start Highest point End Pass type
(mag) Time Alt. Az. Time Alt. Az. Time Alt. Az.
18 May 10.1 04:10:19 10° WSW 04:15:54 31° NW 04:21:26 10° NNE visible
18 May 11.0 09:42:02 10° N 09:44:22 12° NNE 09:46:40 10° NE visible
18 May 8.7 11:26:17 10° NNW 11:32:12 53° NE 11:37:54 10° SE visible
19 May 10.7 04:20:06 10° W 04:25:03 23° NW 04:29:57 10° N visible
19 May 10.7 09:50:02 10° N 09:53:41 16° NE 09:57:17 10° ENE visible
19 May 8.0 11:35:03 10° NNW 11:41:06 76° ENE 11:46:57 10° SE visible
20 May 10.9 04:30:11 10° W 04:34:16 17° NW 04:38:19 10° N visible
20 May 10.3 09:58:22 10° N 10:02:56 22° NE 10:07:23 10° E visible
20 May 7.8 11:43:54 10° NNW 11:49:54 75° WSW 11:55:44 10° SSE visible
21 May 11.1 04:40:43 10° WNW 04:43:35 13° NW 04:46:25 10° N visible
21 May 9.8 10:06:52 10° NNW 10:12:04 29° NE 10:17:09 10° ESE visible
21 May 8.0 11:52:52 10° NW 11:58:38 50° WSW 12:04:14 10° S visible
22 May 9.1 10:15:27 10° NNW 10:21:08 40° NE 10:26:38 10° ESE visible
22 May 8.4 12:02:02 10° NW 12:07:18 33° WSW 12:12:27 10° S visible
23 May 10.7 08:39:39 10° N 08:42:23 13° NE 08:45:03 10° ENE visible
23 May 8.4 10:24:09 10° NNW 10:30:05 58° ENE 10:35:51 10° SE visible
23 May 8.9 12:11:27 10° WNW 12:15:53 22° WSW 12:20:13 10° SSW visible
24 May 10.4 08:47:46 10° N 08:51:41 17° NE 08:55:30 10° E visible
24 May 7.8 10:32:55 10° NNW 10:38:58 84° ENE 10:44:49 10° SSE visible
25 May 10.0 08:56:09 10° N 09:00:53 23° NE 09:05:30 10° E visible
25 May 7.7 10:41:49 10° NW 10:47:45 67° WSW 10:53:31 10° SSE visible
26 May 9.4 09:04:40 10° NNW 09:10:00 32° NE 09:15:12 10° ESE visible
26 May 8.1 10:50:50 10° NW 10:56:28 45° WSW 11:00:40 17° S visible
27 May 10.7 07:29:53 10° NNE 07:30:59 10° NNE 07:32:05 10° NE visible
27 May 8.8 09:13:17 10° NNW 09:19:02 44° NE 09:24:05 13° ESE visible
27 May 8.6 11:00:02 10° NW 11:05:06 30° WSW 11:07:27 22° SW visible
